Regional Weather Roundup
Issued by NWS

Home | Current Version | Previous Version | Graphics & Text | Print | Product List | Glossary On
Versions: 1 2 3 4 5 6 7 8 9 10 11 12 13 14 15 16 17 18 19 20 21 22 23 24 25 26 27 28 29 30 31 32 33 34 35 36 37 38 39 40 41 42 43 44 45 46 47 48 49 50
000
ASUS43 KLSX 292107
RWRMO

WEATHER SUMMARY FOR MISSOURI
NATIONAL WEATHER SERVICE SPRINGFIELD MO
400 PM CDT SUN MAR 29 2015

NOTE: "FAIR" INDICATES FEW OR NO CLOUDS BELOW 12,000 FEET WITH NO
       SIGNIFICANT WEATHER AND/OR OBSTRUCTIONS TO VISIBILITY.
       CURRENT SKY AND/OR WEATHER CONDITIONS ARE NOT AVAILABLE FOR
       CHILLICOTHE AND FARMINGTON.

MOZ001>031-035>038-043-044-053-054-292200-
...NORTHERN AND WESTERN MISSOURI...

CITY           SKY/WX    TMP DP  RH WIND       PRES   REMARKS
KANSAS CTY INT PTSUNNY   68  41  37 NW21G32   29.98R
KANSAS C DTWN  LGT RAIN  69  39  33 NW20G31   29.96F
LEE`S SUMMIT   CLOUDY    65  41  41 NW9       29.98S
ST JOSEPH      MOSUNNY   65  42  43 NW26G35   30.00R
CHILLICOTHE      N/A     66  41  40 NW16G29   29.94S
KIRKSVILLE     CLOUDY    61  42  49 W16G23    29.91F

$$
MOZ066>068-077>081-088>096-101>105-292200-
...SOUTHWEST MISSOURI...

CITY           SKY/WX    TMP DP  RH WIND       PRES   REMARKS
SPRINGFIELD    CLOUDY    59  43  55 NW16G24   30.01R
JOPLIN         CLOUDY    58  43  57 W9        30.04F

$$
MOZ032>034-039>042-045>050-055>058-069>072-292200-
...CENTRAL MISSOURI...

CITY           SKY/WX    TMP DP  RH WIND       PRES   REMARKS
COLUMBIA       PTSUNNY   57  40  52 W14       29.98S
JEFFERSON CITY PTSUNNY   57  39  51 W14       29.98R
ROLLA          CLOUDY    56  39  53 W14       29.97R
SEDALIA        PTSUNNY   60  41  49 W10G21    29.99R
WHITEMAN AFB   CLOUDY    60  43  52 SW9       29.97S
WARRENSBURG    CLOUDY    64  39  39 W14G20    29.99S
OSAGE BEACH    CLOUDY    57  37  47 W9        30.00R

$$
MOZ051-052-059>065-292200-
...EAST CENTRAL MISSOURI...

CITY           SKY/WX    TMP DP  RH WIND       PRES   REMARKS
ST LOUIS INTL  LGT RAIN  57  40  52 W7        29.96R
SPIRIT OF STL  LGT RAIN  55  42  61 SW9       29.95S
ST CHARLES     LGT RAIN  55  40  56 W13       29.95S

$$
MOZ072>076-082>087-097>100-106>115-292200-
...SOUTH CENTRAL AND SOUTHEAST MISSOURI...

CITY           SKY/WX    TMP DP  RH WIND       PRES   REMARKS
CAPE GIRARDEAU CLOUDY    55  43  63 S18G26    30.01F
FARMINGTON     SUNNY     57  39  51 SW15G22   30.01R
POPLAR BLUFF   SUNNY     56  42  59 SW16      30.01F
WEST PLAINS    MOSUNNY   61  42  49 SW8       30.00F

$$


USA.gov is the U.S. government's official web portal to all federal, state and local government web resources and services.